Location: Boiro
(42.6475°N, 8.8834°W)
Time: 21:29:51
(UTC+01:00)

Vanguard 1 - Pass Details

Date: 08 December 2021
Orbit: 652 x 3830 km, 34.2° (Epoch: 19 January)

Event Time Altitude Azimuth Distance (km) Brightness Sun altitude
Rises 20:11:42 0° 163° (SSE) 5,872 14.0 -23.1°
Reaches altitude 10° 20:22:03 10° 127° (SE) 5,859 13.6 -25.0°
Enters shadow 20:22:45 10° 125° (SE) 5,900 13.6 -25.1°
Maximum altitude 20:24:21 10° 120° (ESE) 6,009 - -25.4°
Drops below altitude 10° 20:26:46 10° 113° (ESE) 6,213 - -25.8°
Sets 20:40:31 0° 81° (E) 7,885 - -28.3°
